International Skating Union - Official Site

ISU World Cup Nagano
November 18-20, 2016

Draw | Lap Times | Index | World Cup

Referee: Erik  ØSMUNDSET  (NOR)
Starter: Sung-Yeol  JAEGAL  (KOR)
StartTime: EndTime: Air Temp: Ice Temp: Humidity:
15:30 16:13 16.1℃ -44℃ 7.2%
Result 3000m Ladies Division A
Rankings as of Nov 20 2016 5:52PM
Rank: No.: Name: Nation: Time: Behind: Points:
1 229 Martina  Sábliková CZE CZE 4:03.56200m - 20.19 - (20.1)
600m - 51.35 - (31.1)
1000m - 1:22.98 - (31.6)
1400m - 1:54.94 - (31.9)
1800m - 2:27.01 - (32.0)
2200m - 2:59.00 - (31.9)
2600m - 3:31.09 - (32.0)
3000m - 4:03.56 - (32.4)
100
2 261 Antoinette  de Jong NED NED 4:04.53200m - 20.32 - (20.3)
600m - 51.92 - (31.6)
1000m - 1:23.12 - (31.2)
1400m - 1:54.64 - (31.5)
1800m - 2:26.74 - (32.1)
2200m - 2:59.12 - (32.3)
2600m - 3:31.75 - (32.6)
3000m - 4:04.53 - (32.7)
0.97 80
3 289 Anna  Yurakova RUS RUS 4:05.24200m - 20.45 - (20.4)
600m - 52.10 - (31.6)
1000m - 1:23.65 - (31.5)
1400m - 1:55.86 - (32.2)
1800m - 2:27.85 - (31.9)
2200m - 3:00.12 - (32.2)
2600m - 3:32.46 - (32.3)
3000m - 4:05.24 - (32.7)
1.68 70
4 236 Claudia  Pechstein GER GER 4:05.51200m - 20.94 - (20.9)
600m - 52.61 - (31.6)
1000m - 1:24.79 - (32.1)
1400m - 1:56.97 - (32.1)
1800m - 2:28.98 - (32.0)
2200m - 3:01.07 - (32.0)
2600m - 3:33.61 - (32.5)
3000m - 4:05.51 - (31.9)
1.95 60
5 272 Ireen  Wüst NED NED 4:05.77200m - 20.09 - (20.0)
600m - 51.54 - (31.4)
1000m - 1:23.27 - (31.7)
1400m - 1:54.87 - (31.6)
1800m - 2:26.55 - (31.6)
2200m - 2:58.83 - (32.2)
2600m - 3:32.13 - (33.3)
3000m - 4:05.77 - (33.6)
2.21 50
6 252 Bo-Reum  Kim KOR KOR 4:05.91200m - 21.02 - (21.0)
600m - 52.97 - (31.9)
1000m - 1:25.02 - (32.0)
1400m - 1:57.61 - (32.5)
1800m - 2:30.20 - (32.5)
2200m - 3:01.64 - (31.4)
2600m - 3:33.45 - (31.8)
3000m - 4:05.91 - (32.4)
2.35 45
7 247 Miho  Takagi JPN JPN 4:06.19200m - 20.30 - (20.3)
600m - 52.69 - (32.3)
1000m - 1:24.80 - (32.1)
1400m - 1:57.45 - (32.6)
1800m - 2:29.87 - (32.4)
2200m - 3:01.90 - (32.0)
2600m - 3:33.54 - (31.6)
3000m - 4:06.19 - (32.6)
2.63 40
8 264 Marije  Joling NED NED 4:06.30200m - 20.37 - (20.3)
600m - 52.12 - (31.7)
1000m - 1:24.39 - (32.2)
1400m - 1:56.20 - (31.8)
1800m - 2:28.15 - (31.9)
2200m - 3:00.40 - (32.2)
2600m - 3:32.84 - (32.4)
3000m - 4:06.30 - (33.4)
2.74 35
9 271 Melissa  Wijfje NED NED 4:07.30200m - 20.67 - (20.6)
600m - 53.20 - (32.5)
1000m - 1:25.32 - (32.1)
1400m - 1:57.67 - (32.3)
1800m - 2:29.88 - (32.2)
2200m - 3:01.99 - (32.1)
2600m - 3:34.24 - (32.2)
3000m - 4:07.30 - (33.0)
3.74 30
10 239 Francesca  Lollobrigida ITA ITA 4:07.39200m - 20.29 - (20.2)
600m - 51.86 - (31.5)
1000m - 1:24.20 - (32.3)
1400m - 1:56.40 - (32.2)
1800m - 2:28.54 - (32.1)
2200m - 3:00.87 - (32.3)
2600m - 3:33.92 - (33.0)
3000m - 4:07.39 - (33.4)
3.83 25
11 234 Bente  Kraus GER GER 4:08.52200m - 20.80 - (20.8)
600m - 52.07 - (31.2)
1000m - 1:24.08 - (32.0)
1400m - 1:56.40 - (32.3)
1800m - 2:29.22 - (32.8)
2200m - 3:02.23 - (33.0)
2600m - 3:35.47 - (33.2)
3000m - 4:08.52 - (33.0)
4.96 21
12 284 Olga  Graf RUS RUS 4:09.11200m - 20.91 - (20.9)
600m - 52.51 - (31.6)
1000m - 1:24.62 - (32.1)
1400m - 1:56.71 - (32.0)
1800m - 2:29.25 - (32.5)
2200m - 3:02.36 - (33.1)
2600m - 3:35.58 - (33.2)
3000m - 4:09.11 - (33.5)
5.55 18
13 204 Marina  Zuyeva BLR BLR 4:09.14 (6) 200m - 20.06 - (20.0)
600m - 50.71 - (30.6)
1000m - 1:22.42 - (31.7)
1400m - 1:54.88 - (32.4)
1800m - 2:27.75 - (32.8)
2200m - 3:01.07 - (33.3)
2600m - 3:35.03 - (33.9)
3000m - 4:09.14 - (34.1)
5.58 16
14 244 Misaki  Oshigiri JPN JPN 4:09.14 (7) 200m - 19.62 - (19.6)
600m - 50.30 - (30.6)
1000m - 1:21.75 - (31.4)
1400m - 1:54.02 - (32.2)
1800m - 2:26.90 - (32.8)
2200m - 3:00.30 - (33.4)
2600m - 3:34.47 - (34.1)
3000m - 4:09.14 - (34.6)
5.58 14
15 212 Isabelle  Weidemann CAN CAN 4:09.58200m - 20.85 - (20.8)
600m - 53.00 - (32.1)
1000m - 1:25.45 - (32.4)
1400m - 1:57.98 - (32.5)
1800m - 2:30.79 - (32.8)
2200m - 3:03.67 - (32.8)
2600m - 3:36.52 - (32.8)
3000m - 4:09.58 - (33.0)
6.02 12
16 243 Fuyo  Matsuoka JPN JPN 4:13.16200m - 20.80 - (20.8)
600m - 53.03 - (32.2)
1000m - 1:25.48 - (32.4)
1400m - 1:58.41 - (32.9)
1800m - 2:31.52 - (33.1)
2200m - 3:05.03 - (33.5)
2600m - 3:38.82 - (33.7)
3000m - 4:13.16 - (34.3)
9.60 10